Wind_Speed
23 31 34 30 31 26 21 19 32 37 35 36 40 42 40 40 37 32 30 29 30 28 27 25 26 27 28 28 28 27 24 23
26 28 34 35 29 24 18 13 31 38 42 43 43 43 41 40 36 32 31 31 32 29 28 28 28 28 28 28 27 27 23 22
23 24 22 19 20 20 21 21 31 38 47 45 46 40 39 37 34 32 31 32 32 30 29 28 29 28 27 27 25 20 22 19
13 13 13 13 12 14 18 25 37 40 39 40 37 38 37 36 34 31 33 33 31 30 29 29 25 22 22 24 17 20 19 19
10 10 13 13 13 9 11 15 36 35 38 38 40 40 35 35 35 33 31 33 27 28 28 21 21 20 19 17 19 17 18 18
13 10 11 11 12 11 9 16 26 38 39 42 41 41 41 37 35 35 35 29 29 30 26 25 25 24 20 21 18 15 17 18
13 11 12 12 10 15 13 25 28 44 32 40 41 43 42 39 33 35 33 34 30 28 25 26 24 24 21 20 18 16 16 16
14 13 15 14 14 18 15 31 40 41 29 33 38 40 40 38 35 33 31 30 30 28 27 25 18 20 20 18 18 16 15 14
15 13 16 17 17 21 19 25 42 35 34 32 37 39 38 39 33 30 28 28 27 25 26 20 21 19 18 18 15 14 13 13
16 15 18 23 22 25 21 29 35 40 36 39 41 40 43 38 32 27 24 24 22 23 26 21 19 17 15 14 13 13 13 13
14 17 21 22 24 24 19 25 35 36 38 39 40 42 41 37 33 31 26 22 21 23 22 21 20 17 14 15 14 15 15 14
14 18 23 23 25 24 18 19 27 31 30 32 38 37 34 33 28 24 22 22 22 22 20 19 17 17 14 13 13 14 15 15
17 21 25 27 28 26 24 22 23 34 31 33 28 28 27 26 22 22 23 23 22 21 19 16 15 15 9 7 11 14 16 17
19 24 26 27 30 23 20 25 24 29 33 29 31 26 27 23 28 25 22 22 22 23 19 17 13 17 7 3 3 6 17 21
19 24 26 26 28 27 22 24 25 25 36 28 28 33 30 33 31 29 27 25 25 23 22 18 14 18 17 5 2 5 2 7
19 20 26 25 31 25 27 22 23 26 40 33 36 36 32 32 27 25 26 26 26 23 19 22 21 13 17 20 14 4 3 2
21 21 23 21 27 25 28 23 23 34 38 39 35 40 37 38 35 32 28 31 26 22 23 24 25 19 21 14 21 16 11 10
22 25 24 24 25 26 28 27 26 29 33 37 37 39 44 40 36 34 30 28 25 25 21 22 26 27 26 21 17 9 13 14
24 27 27 27 28 28 27 29 28 28 31 32 31 32 34 34 34 33 30 27 25 21 20 21 23 26 26 22 21 23 23 22
26 26 27 28 29 30 30 27 28 27 29 29 33 31 34 36 33 29 27 27 25 22 21 21 23 23 23 23 23 26 28 26
Wind_Direction
170 180 188 193 189 189 179 192 189 183 179 164 156 156 153 147 153 153 152 152 148 149 145 138 135 136 135 135 131 124 120 120
158 163 183 187 193 204 209 217 198 191 175 166 157 153 150 152 154 155 156 152 146 147 142 137 136 134 135 134 134 125 121 121
174 173 175 185 197 224 234 238 211 207 166 158 153 147 147 153 151 152 156 152 150 146 141 137 135 134 136 137 131 128 123 122
195 196 206 211 229 229 239 228 213 189 160 153 139 140 149 151 147 151 154 155 150 148 142 138 132 133 139 138 135 132 129 127
203 230 240 242 236 230 247 210 198 168 148 148 148 148 146 145 145 150 152 155 149 149 145 145 143 142 147 144 136 139 135 130
227 240 246 235 215 194 179 173 142 147 157 155 147 147 151 152 153 152 158 156 158 158 157 155 151 141 145 142 147 147 141 138
229 228 223 217 201 169 128 153 146 144 146 146 151 152 153 156 159 161 159 163 164 158 160 156 158 146 148 149 153 152 152 145
213 207 205 196 183 169 134 142 143 152 156 155 155 152 154 159 162 160 158 161 164 159 166 166 162 151 156 157 158 159 162 155
205 203 195 192 186 178 173 140 150 156 164 165 160 154 153 162 161 158 157 163 161 166 174 176 158 159 165 168 169 171 171 169
206 214 198 188 180 180 170 149 154 164 168 170 161 160 162 160 156 155 162 163 160 169 179 163 162 165 174 177 180 185 186 187
204 208 187 187 177 175 165 164 164 169 169 171 165 161 162 159 162 160 164 163 170 177 173 167 169 172 177 186 189 196 199 201
206 188 181 176 175 176 169 163 170 167 171 171 165 163 167 165 158 158 166 174 183 189 176 176 178 177 178 188 197 205 212 216
189 177 179 179 173 165 165 169 161 176 169 168 164 166 179 167 161 178 184 190 193 195 185 186 189 187 166 191 213 223 228 230
183 182 180 175 175 177 175 176 181 183 176 179 174 174 180 162 191 191 207 203 203 205 197 201 203 199 191 166 211 223 236 238
182 186 187 178 171 175 174 175 173 175 182 185 179 187 182 191 202 202 208 214 212 213 211 212 214 213 209 186 168 225 199 228
183 181 185 184 177 169 170 164 162 174 179 184 187 189 190 195 213 216 216 226 223 221 222 226 224 220 220 227 234 203 223 243
185 183 182 178 185 182 175 166 165 164 175 188 194 188 195 198 212 218 217 231 232 229 227 228 233 227 228 237 232 241 233 237
185 184 186 186 186 190 191 181 175 171 175 184 190 196 200 205 209 221 223 230 237 240 247 243 237 238 242 236 227 220 222 224
192 188 190 189 189 192 193 191 187 183 185 186 190 199 202 203 207 214 221 229 235 241 245 253 253 242 244 240 244 246 244 239
190 192 193 194 191 193 196 198 197 196 195 195 200 202 206 212 216 223 231 238 244 253 261 257 250 251 247 246 255 263 255 239
Height
775 776 784 783 786 790 792 795 802 805 807 812 810 812 818 817 828 837 843 847 850 854 856 858 861 862 863 867 867 870 872 875
778 781 784 785 786 790 792 794 797 797 799 807 809 812 816 820 828 838 844 848 851 857 858 859 862 863 866 868 871 871 874 877
781 783 786 788 790 790 790 793 792 794 789 802 806 811 817 825 830 838 845 850 854 857 860 863 865 866 869 871 873 875 875 880
782 785 785 784 787 788 787 786 789 793 795 803 805 810 821 827 832 841 847 852 856 860 862 865 868 870 873 874 875 876 878 881
780 782 782 783 784 784 782 779 785 785 790 802 806 812 825 831 833 842 849 853 858 862 864 867 869 870 874 875 875 879 880 883
779 781 781 782 783 784 783 780 777 784 799 803 805 814 825 831 836 840 849 852 857 859 863 866 870 869 874 875 878 882 881 882
778 780 781 782 783 785 785 784 781 789 802 800 809 818 823 830 838 845 847 851 855 857 864 867 871 870 874 876 879 880 883 884
777 779 780 781 783 786 786 787 789 798 803 807 814 816 823 833 842 846 849 853 857 858 864 868 872 871 875 877 879 882 883 884
776 778 780 782 785 787 789 790 793 801 808 815 818 820 826 836 843 846 849 855 856 860 866 870 869 871 875 877 880 883 885 886
775 777 779 781 786 789 792 792 796 803 809 816 818 822 830 837 843 847 852 856 858 864 868 868 869 872 876 878 880 883 885 886
774 777 778 781 785 790 792 794 799 804 810 815 818 826 833 835 843 846 852 856 861 866 867 867 869 872 876 878 878 881 883 884
774 775 778 781 785 790 794 796 802 807 813 818 823 827 834 838 841 847 853 859 863 865 866 867 869 870 874 876 877 879 881 880
772 774 776 780 785 790 794 797 800 809 815 821 824 829 835 836 841 851 855 857 860 864 865 866 868 871 873 875 875 876 876 878
771 773 775 778 782 788 793 796 802 808 815 820 825 829 837 837 846 849 852 855 858 862 862 864 866 868 870 872 872 873 871 872
768 771 774 777 780 785 792 797 803 808 812 818 823 831 834 839 843 846 848 851 854 857 858 859 863 865 867 868 870 867 867 867
766 769 773 776 780 782 787 793 798 802 808 816 823 830 833 837 839 843 846 847 851 852 853 856 859 862 864 864 863 864 865 866
763 767 770 774 779 783 786 792 794 798 807 815 821 825 829 833 836 840 843 846 847 848 849 850 854 856 859 858 859 861 862 863
758 762 767 770 775 780 785 789 793 798 804 811 815 820 823 827 831 834 838 841 842 843 843 845 848 849 852 854 855 854 855 857
753 757 762 766 771 776 780 784 789 794 800 805 811 815 816 820 824 829 831 833 836 837 839 839 841 843 845 846 847 848 849 848
747 752 757 762 765 770 775 779 784 789 794 798 802 807 811 817 820 822 826 829 829 830 831 833 835 834 836 837 838 840 840 841